STARLINK-36260, 67732

Orbit data source: Space-Track

STARLINK-36260, 67732 is a payload satellite owned by SpaceX/Seattle (US) in SSO that was launched on Wed, 11 Feb 2026 UTC via an FALCON 9 launch vehicle from the Air Force Western Test Range (AFWTR). Payload-class satellites include a variety of spacecraft equipped with specific instruments for various scientific and technological missions. These include communications satellites like Starlink; space stations such as the ISS; scientific satellites like the Hubble; Earth observation satellites from companies like Planet Labs, Umbra, and HawkEye 360; GPS; miniature CubeSats for education and research; and military/defense satellites.

Loading next visibility...
Identifier
67732, 2026-026M
Orbit
SSO
Country
Flag of USUS
Related business
Manufacturer
SpaceX/Seattle
Mission
Operational Commercial Communications
Bus & Motor
STARLINK V2MO, Unknown motor
Mass
575 kg wet, ~530 kg dry
Launch date (UTC)
2026-02-11 (3 months ago)
Launch vehicle
FALCON 9
Launch site
Air Force Western Test Range (AFWTR)
Object type
Payload
Rocket body
Debris
Shape & HBR
Box + 2 Pan, 17.7 m
Radar Cross Section
36.964 m²

Expand to show TLE details & history
Last TLE update: 8 hours ago

TLE from 8 hours ago
0 STARLINK-36260
1 67732U 26026M   26130.13967009  .00011307  00000-0  35208-3 0  9991
2 67732  97.2847 183.8810 0001344  95.2219 264.9177 15.33440078 13547
Epoch: 2026-05-10T03:21Z
TLE epoch observation values (Epoch: 2026-05-10T03:21:07.495Z)
Latitude
-0.00006°
Longitude
-94.34726°
Altitude
468.751 km
Speed
7.632 km/s
True Right ascension
12h 15m 31s
True Declination
0° 00' 00"
Sunlit
Object was in full shadow at epoch
Visualization orbit readout
Latitude
Unknown
Longitude
Unknown
Altitude
Unknown
Speed
Unknown
Apparent Right ascension
Unknown
Apparent Declination
Unknown
Sunlit
N/A
Visualization observer readout
Local Sidereal Time
19:48:23
Azimuth
Unknown
Elevation
Unknown
Doppler factor
Unknown
Orbital elements
Apogee altitude
463.42 km
Perigee altitude
461.581 km
Semi-major axis
6,840.638 km
Eccentricity
0.00013
Inclination
97.2847°
RAAN
183.881°
Arg. of periapsis
95.2219°
True anomaly
264.90236°
Mean anomaly
264.9177°
Eccentric anomaly
264.91003°
Mean motion
3.83617 °/min
Orbital period
93.84 mins
BSTAR
0.00035208
Loading maneuver chart data...
Computing Atmospheric mass density...
Loading historical data...
Loading historical data...
Loading historical data...
Loading historical data...
Loading historical data...
Loading historical data...
Loading historical data...

Documentation

Showing up to 5 results
|